星链-4481 (STARLINK-4481 )

导读 | 豆包AI

STARLINK-4481是美国太空探索技术公司(SpaceX)于2022年8月10日发射的星链(Starlink)低轨互联网卫星,属于星链一代组网卫星。该卫星重约386kg,运行在近地轨道,配备相控阵天线与激光星间链路,工作于Ku、Ka频段,可为全球提供高速低延迟互联网接入服务,单颗覆盖直径约百公里,预期服役5-7年后将主动离轨销毁。

Basic Information
目录编号:
53418
目录名称:
STARLINK-4481
国际标识:
2022-097AG
轨道中心:
EARTH
卫星名称:
星链-4481
卫星全名:
星链-4481 (STARLINK-4481 )
卫星状态:
在轨 (已飞行1313 天)
发射日期:
2022-08-10 UTC
国别 :
美国 (US)
星等 :
--
Orbit Information
数据来源 国际轨道数据 AOE轨道数据
星历时间 2026-03-14T14:50:01+0800
1天前
查看轨道信息
2026-03-09T03:00:00+0800
6天前
查看轨道信息
半长轴 6917.87km 6917.914km
偏心率 0.0001382 0.0001637
轨道倾角 53.217° 53.216°
近地点辐角 85.935° 78.406°
升交点赤经 83.057° 107.721°
平近点角 274.180° 308.055°
近地点 538.776km 538.644km
远地点 540.69km 540.91km
周期 95.437分钟 95.438分钟
每日圈数 15.088434 15.088291
Detailed Information
固有亮度:
5
最大亮度:
2.5
卫星平台:
Starlink v1.5
覆盖范围:
全球
运营商:
太空探索技术公司
运营商所在国:
美国
制造商(研发单位):
太空探索技术公司
制造商所在国:
美国
使用方式:
暂无
Satellite Introduction
星链(Starlink)计划是由太空探索技术公司(SpaceX)提出的一个巨型低轨卫星互联网星座项目,计划在2019年至2024年间在太空搭建由约1.2万颗卫星组成的“星链”网络,其中1584颗将部署在地球上空550千米处的近地轨道,并从2020年开始工作。该卫星仍在工作。
2D Orbit Map
3D Orbit Map
Orbit Altitude Analysis Chart
Orbit Inclination Analysis Chart
Orbit Comprehensive Analysis Chart
View Comprehensive Chart